Flag for Germany Weather past 2 weeks in Crailsheim, Baden-Württemberg, Germany

Now
59 °F

Rain. Fog.


Feels Like: 58 °F
Forecast: 40 / 53 °F
Wind: 6 mph from West

Location: Niederstetten

Current Time: Sep 21, 2014 at 10:51:13 AM

Latest Report: Sep 21, 2014 at 10:20 AM


Visibility: 5 mi

Pressure: 29.98 "Hg

Humidity: 94%

Dew point: 57 °F

Location of CrailsheimLocation

Historic Weather in Crailsheim — Graph

°F

Crailsheim temperature yesterday

Maximum temperature yesterday: 68 °F (at 3:20 PM)
Minimum temperature yesterday: 57 °F (at 5:20 AM)
Average temperature yesterday: 62 °F

Past Weeks' High & Low Weather Summary

 TemperatureHumidityPressure
High75 °F (Sep 6, 3:20 PM)100% (Sep 6, 11:20 PM)30.18 "Hg (Sep 6, 11:20 PM)
Low46 °F (Sep 11, 6:20 AM)53% (Sep 9, 5:20 PM)29.89 "Hg (Sep 18, 4:20 AM)
Average60 °F86%30.02 "Hg
* Reported Sep 6 9:20 AM — Sep 21 9:50 AM, Crailsheim, Weather by CustomWeather, © 2014

Note: Actual official high and low records may vary slightly from our data, if they occured in-between our weather recording intervals... More about our weather records

Advertising

Crailsheim weather history for previous 24 hours

 ConditionsComfort  
Time TempWeatherWind HumidityBarometerVisibility
9:50 AM
Sep 21
59 °FRain. Fog.5 mph94%29.98 "Hg5 mi
9:20 AM59 °FLight rain. Fog.7 mph94%29.98 "Hg5 mi
8:47 AM59 °FLight rain. Fog.8 mph94%29.98 "Hg4 mi
8:20 AM57 °FFog.5 mph100%29.98 "Hg2 mi
7:20 AM57 °FFog.5 mph100%29.98 "Hg6 mi
6:20 AM57 °FRain. Mostly cloudy.2 mph100%29.98 "HgN/A
5:20 AM57 °FCool.5 mph94%29.98 "HgN/A
4:20 AM57 °FCool.8 mph94%29.98 "HgN/A
3:20 AM57 °FCool.5 mph88%30.01 "HgN/A
2:20 AM55 °FCool.5 mph94%30.01 "HgN/A
1:20 AM57 °FCool.6 mph94%30.01 "Hg6 mi
12:20 AM61 °FCool.6 mph83%30.01 "HgN/A
11:20 PM
Sep 20
61 °FCool.2 mph88%30.01 "Hg6 mi
10:20 PM59 °FCool.2 mph94%30.01 "HgN/A
9:20 PM59 °FCool.3 mph94%30.01 "Hg6 mi
8:20 PM61 °FCool.No wind94%30.01 "HgN/A
7:20 PM63 °FThunderstorms. Partly sunny.3 mph88%30.01 "HgN/A
3:20 PM68 °FPassing clouds.9 mph73%29.98 "HgN/A
2:20 PM66 °FScattered clouds.9 mph78%30.01 "HgN/A
1:20 PM66 °FBroken clouds.9 mph78%30.01 "HgN/A
12:20 PM64 °FBroken clouds.9 mph83%30.01 "HgN/A
11:20 AM64 °FBroken clouds.8 mph88%30.01 "HgN/A
10:20 AM64 °FBroken clouds.10 mph83%30.01 "HgN/A
Weather by CustomWeather, © 2014

See weather overviewHow to use our weather pages